GOES 18

Last updated on Thu Nov 21 2024 00:02:20 GMT+0000 (Coordinated Universal Time)

1 51850U 22021A 24324.48182834 .00000098 00000+0 00000+0 0 9994 2 51850 0.0359 114.1989 0000736 170.4092 170.8684 1.00270109 10049
UTC large
Height (km)
Speed (km/s)
/
Latitude / Longitude
Inclination (degrees)
Orbital Period (minutes)
Azimuth
Elevation
Range (km)
Doppler Factor

Next 0 passes for location: London (51.5072 / 0.1276)

Sorry there are no passes over London.